Wind_Speed
6 4 2 4 4 5 0 2 1 1 1 2 3 3 4 1 1 2 3 5 13 18 15 16 17 20 20 17 9 9 8 8 10 9 9 11 11 10 11 15 17 18 16 17 18 17 15 16 14
8 4 3 2 5 3 4 2 2 2 2 5 4 2 3 1 0 2 1 8 13 15 13 13 15 17 18 17 14 9 9 8 9 10 11 11 12 13 14 16 16 15 19 18 16 15 14 14 17
5 4 3 4 3 4 4 3 3 1 1 1 3 2 2 1 2 2 4 6 9 13 14 13 14 14 16 15 15 10 9 10 9 10 10 11 12 14 16 17 17 17 15 13 15 16 16 17 19
2 6 4 4 2 2 3 2 2 2 0 5 2 1 1 1 2 3 6 6 9 13 15 14 13 12 11 13 11 11 9 9 12 9 8 10 10 13 15 17 17 17 15 12 13 17 17 18 17
5 3 4 4 2 2 2 1 3 1 1 3 2 2 2 2 3 3 5 5 8 12 15 14 13 14 13 10 10 8 6 6 12 12 7 5 9 12 14 18 19 18 13 15 14 16 19 19 16
4 3 4 3 3 2 3 1 3 1 1 3 1 2 3 2 2 3 4 5 8 12 14 14 14 13 12 12 9 7 8 6 8 12 13 4 3 8 14 21 22 20 21 16 16 17 18 19 15
5 4 4 5 4 1 4 2 3 3 2 4 2 2 2 3 3 2 2 4 8 11 14 14 14 13 13 12 10 9 7 7 5 12 15 13 14 8 14 20 24 27 24 19 18 19 19 19 17
4 4 3 3 5 4 2 1 2 3 4 1 3 4 4 3 4 3 3 6 9 11 13 14 14 14 13 12 10 11 7 7 11 7 14 15 13 12 13 18 22 25 24 24 23 20 20 19 16
2 4 3 5 6 2 1 1 1 1 2 2 2 2 2 4 3 4 6 8 8 10 12 13 15 15 15 14 12 11 9 7 6 13 13 16 17 12 14 17 16 18 24 21 23 22 22 21 15
4 3 5 2 3 3 2 1 2 3 3 3 3 2 3 3 4 6 7 9 10 12 12 13 14 15 15 14 14 12 10 10 6 6 11 13 16 13 13 10 12 17 17 17 21 19 22 21 18
1 3 5 2 2 1 1 2 1 1 6 6 6 5 6 6 6 7 9 6 6 8 11 12 14 15 15 15 15 12 11 11 10 3 3 12 14 16 14 5 10 15 18 20 22 21 20 21 20
4 1 2 4 2 2 3 1 4 6 8 2 7 3 3 6 7 10 10 9 9 10 11 11 12 13 15 15 15 13 11 9 12 10 4 6 10 19 22 24 9 21 23 27 26 24 22 20 20
3 2 2 1 1 3 2 5 5 8 10 7 5 5 7 7 12 13 12 11 9 10 9 10 11 12 14 15 16 13 12 10 10 9 9 9 8 8 27 25 12 14 27 32 29 25 24 23 18
2 3 2 1 2 2 3 3 4 6 1 4 6 9 8 8 12 14 14 14 11 9 9 9 11 13 14 16 17 16 14 11 8 8 9 10 14 8 21 30 25 14 23 34 29 30 28 23 18
4 2 3 3 0 3 3 5 8 8 2 4 8 8 8 9 15 21 22 15 10 8 9 10 10 12 15 16 16 17 16 12 8 8 8 10 12 15 8 31 21 24 20 23 29 28 28 25 20
3 3 3 2 2 1 5 8 6 4 5 9 9 8 7 9 13 20 20 14 10 7 9 9 9 12 15 16 16 17 16 11 8 10 9 8 10 16 18 8 28 25 21 21 28 29 27 26 22
5 2 3 5 2 0 3 7 5 4 3 9 9 8 7 8 13 18 11 11 9 6 8 10 10 13 15 15 15 17 13 8 7 9 9 10 11 12 18 18 18 22 24 21 27 29 27 26 24
3 2 3 5 2 2 5 18 14 10 9 11 9 8 7 8 8 12 5 7 7 7 7 8 11 13 14 15 15 12 10 4 7 8 8 10 12 13 17 21 21 24 24 23 27 31 30 27 27
2 1 3 4 2 4 5 10 16 12 7 10 8 7 7 6 4 3 3 5 7 7 6 8 11 12 13 15 18 16 12 15 5 7 9 10 12 14 15 22 25 28 24 24 31 29 29 24 24
2 2 4 5 2 3 6 16 13 5 6 7 7 6 7 4 5 3 4 7 9 8 7 9 10 11 11 13 13 13 16 10 11 8 8 8 11 14 15 20 28 30 26 29 29 30 24 16 25
1 2 1 3 8 2 8 6 5 3 3 3 4 3 4 6 5 2 4 9 10 8 7 9 9 10 9 11 13 13 9 6 6 11 9 8 11 14 16 21 29 30 30 28 32 29 27 19 26
2 1 1 3 5 3 4 4 4 4 8 5 7 6 7 6 3 1 4 7 10 6 5 7 8 9 10 10 10 10 10 9 11 15 15 12 11 12 16 24 32 31 30 30 32 32 30 25 24
1 1 1 1 2 3 1 2 6 3 4 5 7 6 6 6 6 4 4 7 7 4 3 6 7 7 9 10 9 10 11 10 13 14 14 12 11 9 9 27 32 34 29 30 29 30 34 30 25
1 2 4 3 2 2 1 2 5 3 3 4 4 3 4 6 5 3 2 5 5 3 2 5 6 8 8 9 8 8 10 11 12 13 15 14 14 11 9 14 29 31 32 29 27 28 33 33 29
2 3 4 6 4 4 2 2 8 5 6 5 6 7 6 6 4 4 5 6 5 3 2 3 5 7 8 9 8 8 8 8 8 10 12 14 14 15 10 7 26 31 32 29 28 28 32 32 31
2 2 4 4 1 5 1 5 4 5 6 5 5 6 5 7 5 5 4 5 5 2 1 3 4 6 8 9 8 8 8 7 7 7 8 10 12 13 9 11 18 21 24 25 26 27 28 29 28
2 2 2 6 2 3 3 7 7 5 8 6 8 6 9 7 4 3 3 4 4 2 1 2 4 4 6 8 9 8 8 7 7 7 6 6 9 8 9 9 10 14 22 22 25 25 25 23 25
1 4 3 3 1 4 5 5 5 5 7 7 8 9 9 5 5 2 3 5 4 3 1 3 3 4 6 7 8 8 8 8 7 7 7 7 8 8 10 9 5 8 14 16 16 14 20 25 21
1 1 3 3 3 4 1 6 7 7 6 8 9 8 8 7 6 3 3 5 5 4 2 3 4 5 6 8 9 10 9 9 7 7 8 8 7 6 6 6 5 6 9 9 12 12 14 14 18
1 2 3 4 4 0 2 7 2 6 4 5 9 8 5 5 6 4 5 7 7 5 4 3 5 5 6 7 8 8 9 8 8 8 5 5 5 6 5 6 6 7 8 9 11 11 9 17 17
Wind_Direction
357 356 26 29 61 60 128 203 229 55 285 318 5 35 122 124 235 229 331 358 346 345 344 343 349 355 359 353 308 274 235 244 240 218 202 195 196 187 170 158 157 153 148 137 131 132 132 129 123
359 353 36 81 86 73 267 287 185 246 229 142 75 26 28 268 75 284 38 340 348 350 346 339 343 352 354 354 348 273 255 235 244 235 208 199 201 198 185 167 169 163 149 142 138 139 132 128 128
13 16 77 88 104 172 202 200 223 267 10 251 108 54 158 257 280 294 319 320 341 349 355 346 336 344 352 351 350 319 247 236 224 228 232 205 201 207 196 181 168 149 145 147 148 148 138 134 133
41 21 35 81 120 220 213 193 252 172 232 41 123 19 264 182 222 278 318 304 326 342 345 343 341 336 336 350 347 344 279 245 212 207 216 227 200 212 205 193 169 154 149 152 156 151 146 142 142
54 63 64 72 181 209 228 180 187 238 309 352 353 258 248 224 243 302 310 289 316 333 337 340 346 342 336 329 345 330 308 218 210 203 190 210 208 219 214 197 174 167 163 159 162 161 151 152 149
46 84 76 177 225 232 285 217 165 190 292 290 116 151 251 186 237 279 298 296 319 335 334 334 339 342 338 332 323 321 357 269 227 201 187 179 220 218 231 206 189 183 163 167 165 165 154 161 156
107 85 172 146 197 219 225 164 177 195 289 277 135 236 288 243 230 244 262 292 323 329 331 338 336 333 335 332 319 327 313 298 250 242 208 206 217 218 254 216 194 171 163 170 165 166 164 161 156
102 89 110 178 188 238 216 105 141 170 258 80 153 241 277 247 205 225 280 309 321 333 335 339 340 332 328 331 326 324 321 308 241 214 214 201 192 202 233 235 226 175 163 167 169 165 166 166 160
123 72 185 203 150 231 10 173 308 332 248 229 219 208 239 150 208 258 300 311 327 339 342 343 340 337 332 325 326 320 308 311 290 245 203 195 181 195 221 235 227 197 160 170 165 167 168 172 167
73 118 207 182 159 176 183 143 300 349 318 270 273 250 201 217 260 287 300 316 336 335 337 338 340 339 334 331 322 319 312 306 323 298 213 198 181 181 217 219 239 216 169 186 171 165 169 176 175
74 173 160 175 168 175 206 189 328 309 293 231 246 242 220 249 258 271 281 287 288 315 327 335 339 340 335 332 329 322 310 304 296 339 240 224 203 199 215 233 244 210 195 177 165 166 171 173 173
87 71 160 175 173 140 226 258 294 196 232 272 247 239 209 250 262 263 272 296 302 314 316 325 335 338 336 331 331 328 317 299 289 302 273 250 224 222 208 228 262 214 191 180 173 167 164 164 166
96 167 117 141 200 253 260 249 245 252 253 246 229 243 256 265 268 272 269 274 271 282 306 321 329 332 333 331 329 325 318 303 289 280 294 270 250 228 219 205 222 221 195 187 174 169 165 166 167
115 102 103 240 288 271 260 279 4 254 194 206 208 239 249 253 259 274 264 263 262 283 298 313 321 328 334 331 328 325 321 305 287 285 277 275 255 248 211 207 214 232 203 183 176 174 165 172 163
126 70 323 236 296 288 49 276 232 239 151 237 240 252 275 268 274 257 263 261 263 273 299 313 318 328 331 329 323 322 320 304 274 270 268 277 260 250 238 207 206 225 224 175 181 177 168 169 178
61 54 7 243 121 305 71 274 259 273 188 246 248 257 272 281 277 285 271 252 243 268 302 311 315 321 324 325 321 318 317 304 270 260 273 274 273 249 255 209 215 218 211 193 182 169 169 181 187
17 229 229 314 178 291 137 274 300 350 226 270 271 273 291 295 308 307 268 239 233 267 297 311 310 321 324 323 322 322 312 296 274 262 259 274 271 266 243 236 227 213 200 184 183 179 180 184 189
227 229 264 254 339 272 257 266 274 269 262 258 274 284 275 292 291 320 257 216 226 258 292 296 315 323 327 330 329 325 320 268 282 266 263 268 274 272 258 239 228 218 204 186 178 182 187 193 191
2 339 284 269 47 313 241 275 282 279 250 257 267 265 268 274 294 13 155 199 239 259 282 303 322 328 334 342 344 338 331 317 290 283 275 275 265 271 261 242 226 227 221 205 198 184 188 189 189
37 297 284 284 318 358 326 295 281 293 256 224 233 232 247 277 307 273 225 221 239 262 283 320 328 337 342 342 341 327 319 314 313 313 303 282 274 270 263 235 222 215 204 196 196 185 176 184 184
183 219 266 250 324 245 313 295 344 321 269 278 249 216 212 239 269 254 207 225 242 257 300 324 335 334 338 341 340 342 336 329 320 335 328 313 297 282 260 231 214 203 202 187 193 187 178 173 185
272 127 34 328 26 288 7 280 301 330 303 286 273 252 256 261 272 165 206 221 237 258 296 327 337 340 337 344 347 356 341 340 335 339 337 331 318 304 267 220 206 196 191 184 192 192 188 185 181
253 105 83 40 355 355 342 65 271 349 297 296 301 269 251 258 244 255 225 226 232 236 291 337 344 335 344 349 351 352 349 347 346 345 345 335 321 347 281 206 196 188 189 187 193 192 193 194 183
168 124 60 56 48 18 358 103 282 232 227 288 300 314 256 264 249 246 226 190 215 223 320 347 349 348 344 354 358 360 354 350 353 354 353 346 344 11 19 164 191 187 192 189 197 204 203 201 199
88 55 342 356 9 221 15 16 252 273 250 245 283 291 280 270 245 242 198 203 224 225 345 13 2 352 345 355 6 0 354 346 342 357 358 353 359 9 23 53 156 175 184 193 200 207 204 201 201
80 125 148 217 295 280 16 238 249 232 292 273 304 288 272 272 262 242 239 202 207 204 6 23 30 355 348 0 9 4 353 346 341 355 355 354 7 15 16 37 121 163 181 194 202 202 198 202 207
210 70 147 100 57 37 256 284 294 276 284 288 276 284 266 271 282 260 168 173 186 198 37 52 63 10 7 9 6 7 356 349 343 350 345 6 7 18 13 49 71 121 155 175 183 189 195 199 205
22 163 81 10 22 311 292 281 246 258 252 255 260 249 260 258 273 248 181 167 177 182 132 84 50 45 21 34 19 10 359 353 350 345 353 1 18 17 37 42 46 90 133 172 179 187 205 205 207
114 26 62 112 125 173 271 277 208 217 221 228 245 245 249 242 247 240 189 165 176 171 152 99 73 44 38 40 27 16 15 4 359 3 3 359 13 21 42 56 78 122 132 148 181 183 180 178 192
320 181 180 123 245 116 149 273 214 225 252 247 272 274 262 244 238 224 176 178 174 183 164 129 94 70 41 43 40 23 17 18 7 2 11 19 10 23 30 49 72 107 134 135 171 175 181 182 176
Height
795 794 793 794 820 833 837 827 822 819 818 817 817 819 821 824 821 829 826 825 823 821 818 817 813 811 808 806 805 804 803 804 804 804 804 806 807 808 807 807 809 808 810 813 814 816 817 816 816
795 795 794 807 834 845 845 827 823 821 815 818 820 822 824 823 825 825 824 823 822 820 818 816 813 811 809 806 804 803 804 804 804 805 804 804 806 808 808 808 808 809 811 812 815 817 818 819 818
796 796 804 824 846 844 842 827 824 819 817 817 823 824 825 825 825 824 823 822 821 820 818 815 813 811 809 807 805 802 802 802 802 803 805 803 804 807 808 808 808 810 812 815 815 817 819 820 821
795 798 813 831 833 830 829 826 823 821 817 818 821 824 826 825 825 823 823 822 821 819 818 816 813 810 808 806 804 803 801 801 801 802 802 805 802 807 808 809 809 810 813 816 818 817 820 822 823
797 808 830 837 831 826 825 824 825 825 823 821 822 824 826 823 823 823 822 822 821 819 818 816 813 810 808 805 804 803 800 799 799 799 801 802 803 805 808 809 810 809 811 817 818 819 820 823 824
808 815 834 840 834 826 825 822 824 826 825 822 823 826 824 822 822 822 821 822 821 819 818 815 812 810 808 806 803 802 801 800 799 799 798 800 804 805 807 807 808 808 811 814 817 820 820 824 825
810 823 832 835 837 830 824 821 824 825 826 824 821 824 824 823 822 822 821 821 820 819 817 814 812 810 808 806 803 801 801 800 799 799 799 800 801 801 806 806 805 805 804 811 816 819 821 823 826
812 820 829 830 837 828 821 821 823 824 824 822 823 826 823 821 822 822 822 821 819 818 817 814 812 811 808 806 803 801 800 800 800 798 798 798 800 802 805 806 802 788 800 807 813 816 820 823 825
808 826 835 829 832 824 822 823 822 821 823 823 822 822 821 821 822 822 821 820 819 818 816 814 812 810 808 806 803 801 800 800 798 798 799 798 798 800 804 803 804 798 799 807 810 813 817 822 825
818 829 824 825 825 826 824 823 823 823 824 822 821 821 821 821 821 821 821 819 818 817 816 815 812 809 808 806 804 801 799 799 797 797 796 797 795 796 802 802 802 803 800 808 810 813 817 821 825
821 825 823 824 825 824 825 824 825 824 825 822 820 819 819 820 820 821 821 819 817 816 815 814 812 810 808 806 802 800 798 797 797 796 795 796 795 795 799 801 803 804 807 809 810 814 817 820 824
824 824 823 825 824 824 826 824 824 824 820 816 817 816 817 818 818 819 818 815 814 815 815 813 811 808 807 805 803 800 798 797 797 795 795 795 795 796 796 801 803 803 805 807 810 814 817 821 823
824 825 824 824 824 824 824 824 825 819 814 814 815 816 816 816 816 816 815 814 815 814 814 812 810 808 806 804 801 799 798 796 796 796 793 794 794 794 797 800 801 802 804 805 808 812 815 820 823
823 824 826 825 825 824 825 824 825 811 810 811 814 814 815 815 814 812 812 812 813 814 812 810 808 807 805 802 800 798 796 795 794 794 794 793 793 790 794 797 799 803 804 801 807 811 814 819 822
825 827 826 826 825 826 825 824 823 810 808 809 812 811 812 811 810 808 808 810 811 811 810 808 807 806 804 801 798 796 793 793 792 793 793 792 791 788 791 795 797 800 802 802 806 813 815 819 824
827 832 834 824 825 826 828 823 808 807 809 808 810 811 811 808 806 804 805 807 808 809 809 808 806 804 801 798 796 793 791 790 790 790 790 791 789 788 784 787 795 798 800 802 807 811 813 820 824
839 834 833 827 825 827 830 826 811 811 812 811 810 809 809 806 802 800 801 803 806 807 807 806 804 802 800 797 793 791 789 788 788 788 788 787 787 787 787 788 791 795 798 800 804 810 814 818 823
833 834 832 834 830 828 832 823 813 813 816 812 810 809 808 805 803 800 800 802 805 805 805 805 803 801 799 796 792 789 787 786 786 786 785 785 785 785 785 786 789 793 796 798 804 808 813 818 820
837 837 837 833 833 834 833 830 812 805 811 810 807 807 805 803 801 800 799 802 804 804 804 803 801 799 796 793 791 787 785 785 784 784 783 783 783 783 782 783 785 789 791 794 801 805 811 817 821
838 839 840 839 836 840 834 819 808 806 804 801 801 803 802 800 800 800 800 801 801 803 803 801 800 799 797 795 792 789 786 784 783 783 781 780 779 779 777 779 782 785 789 792 799 802 808 814 818
843 840 842 845 846 840 842 815 803 799 800 794 797 797 797 798 798 798 798 798 799 800 801 799 799 798 796 793 791 789 786 784 783 781 778 777 775 774 773 773 778 780 787 788 794 799 803 809 817
837 847 848 848 850 838 841 825 804 805 805 796 796 799 799 798 796 796 797 796 797 799 800 799 798 798 796 793 791 789 789 786 783 779 776 773 772 769 766 767 773 776 783 786 791 796 802 807 812
841 848 849 849 851 854 837 847 809 809 795 792 794 796 796 796 795 794 795 794 795 797 798 798 798 797 796 793 791 790 788 786 783 780 776 774 772 766 763 761 768 773 780 783 788 793 799 804 808
848 847 853 858 861 882 837 842 810 804 793 792 790 791 792 793 792 793 794 793 794 796 797 797 797 797 796 793 791 790 789 786 784 782 778 775 769 765 760 759 764 769 775 780 786 792 796 801 805
847 850 877 862 884 857 848 852 812 798 797 793 792 793 792 792 792 793 794 793 793 796 797 797 796 796 795 794 791 791 789 787 786 784 781 777 771 767 764 763 762 767 772 780 786 791 794 799 804
847 847 870 855 866 861 851 834 799 798 797 796 793 795 793 793 793 792 791 792 793 795 797 797 796 795 795 795 793 792 790 788 786 784 782 778 776 770 766 762 761 767 773 779 785 790 794 799 804
850 860 855 887 922 888 839 822 803 797 798 797 796 796 795 793 793 793 792 792 794 795 796 797 796 794 795 796 794 793 791 789 786 783 782 781 777 775 773 767 766 765 773 779 784 788 793 797 802
847 854 855 878 852 856 846 831 813 796 794 794 795 793 793 791 791 794 793 792 795 795 795 796 796 795 795 796 795 795 792 790 788 784 782 780 779 776 772 770 771 772 775 780 783 786 791 795 800
859 864 856 858 865 874 880 818 807 792 790 790 790 788 791 791 791 792 794 792 794 795 795 795 795 795 795 796 795 794 792 790 789 786 782 780 779 779 778 778 777 777 779 782 785 789 792 794 798
851 840 844 853 863 892 881 830 786 792 789 791 790 789 788 789 790 790 792 792 793 795 795 795 795 796 795 795 795 794 792 791 789 788 787 784 782 781 781 779 778 778 780 783 787 789 791 792 798